JBU1129 KPVD-KJFK

Flight info

Callsign JBU1129
Flight time 0h 27m
Altitude 16000
Route DCT PVD DCT YANTC T224 CCC V46 DPK DCT
Aircraft A320/M-SDE2E3FGHIRWXY/LB1

Departure

Time 2026-05-06 09:53
Airport Rhode Island T. F. Green International Airport (KPVD)

Arrival

Time 2026-05-06 10:21
Airport John F. Kennedy International Airport (KJFK)
Time Latitude Longitude Altitude Speed Heading
2026-05-06 09:30 41.72630 -71.43402 64 ft 0 kts 313°
2026-05-06 09:45 41.72628 -71.43398 64 ft 2 kts 313°
2026-05-06 09:45 41.72617 -71.43384 64 ft 2 kts 313°
2026-05-06 09:46 41.72607 -71.43368 64 ft 2 kts 313°
2026-05-06 09:46 41.72597 -71.43354 64 ft 2 kts 313°
2026-05-06 09:46 41.72586 -71.43343 64 ft 2 kts 351°
2026-05-06 09:46 41.72572 -71.43346 64 ft 2 kts 37°
2026-05-06 09:47 41.72560 -71.43358 64 ft 2 kts 30°
2026-05-06 09:47 41.72547 -71.43368 64 ft 2 kts 33°
2026-05-06 09:47 41.72534 -71.43378 64 ft 1 kts 32°
2026-05-06 09:47 41.72532 -71.43380 64 ft 0 kts 32°
2026-05-06 09:49 41.72533 -71.43379 64 ft 1 kts 32°
2026-05-06 09:49 41.72551 -71.43315 64 ft 11 kts 102°
2026-05-06 09:49 41.72544 -71.43164 64 ft 18 kts 86°
2026-05-06 09:50 41.72554 -71.42956 64 ft 25 kts 87°
2026-05-06 09:50 41.72502 -71.42765 64 ft 17 kts 93°
2026-05-06 09:50 41.72521 -71.42715 64 ft 0 kts 38°
2026-05-06 09:51 41.72522 -71.42715 64 ft 0 kts 38°
2026-05-06 09:51 41.72587 -71.42655 64 ft 22 kts 32°
2026-05-06 09:51 41.72744 -71.42525 63 ft 27 kts 32°
2026-05-06 09:51 41.72904 -71.42390 64 ft 26 kts 33°
2026-05-06 09:52 41.73052 -71.42265 64 ft 16 kts 36°
2026-05-06 09:52 41.73061 -71.42162 64 ft 12 kts 125°
2026-05-06 09:52 41.73009 -71.42128 64 ft 7 kts 216°
2026-05-06 09:52 41.72880 -71.42239 64 ft 52 kts 212°
2026-05-06 09:53 41.72368 -71.42669 64 ft 118 kts 213°
2026-05-06 09:53 41.71547 -71.43378 271 ft 152 kts 214°
2026-05-06 09:53 41.70689 -71.44167 1019 ft 150 kts 217°
2026-05-06 09:53 41.70034 -71.45145 1963 ft 142 kts 230°
2026-05-06 09:54 41.69271 -71.45926 2529 ft 149 kts 210°
2026-05-06 09:54 41.68390 -71.46740 2947 ft 163 kts 236°
2026-05-06 09:54 41.67969 -71.48244 3350 ft 186 kts 252°
2026-05-06 09:54 41.67622 -71.49995 3849 ft 204 kts 251°
2026-05-06 09:55 41.67228 -71.51878 4360 ft 222 kts 251°
2026-05-06 09:55 41.66776 -71.53920 5034 ft 234 kts 251°
2026-05-06 09:55 41.66300 -71.56006 5883 ft 239 kts 250°
2026-05-06 09:55 41.65803 -71.58140 6717 ft 244 kts 250°
2026-05-06 09:56 41.65295 -71.60297 7558 ft 249 kts 249°
2026-05-06 09:56 41.64768 -71.62512 8459 ft 252 kts 249°
2026-05-06 09:56 41.64240 -71.64707 9320 ft 254 kts 248°
2026-05-06 09:56 41.63691 -71.66979 10164 ft 258 kts 247°
2026-05-06 09:57 41.63127 -71.69286 10772 ft 269 kts 248°
2026-05-06 09:57 41.62526 -71.71732 11174 ft 287 kts 248°
2026-05-06 09:57 41.61888 -71.74335 11527 ft 305 kts 248°
2026-05-06 09:57 41.61212 -71.77094 11837 ft 322 kts 249°
2026-05-06 09:58 41.60493 -71.80029 12129 ft 339 kts 249°
2026-05-06 09:58 41.59749 -71.83078 12400 ft 354 kts 249°
2026-05-06 09:58 41.58963 -71.86287 12673 ft 368 kts 249°
2026-05-06 09:58 41.58165 -71.89546 13148 ft 375 kts 249°
2026-05-06 09:59 41.57346 -71.92881 13786 ft 377 kts 249°
2026-05-06 09:59 41.56483 -71.96178 14369 ft 378 kts 245°
2026-05-06 09:59 41.55285 -71.99271 14937 ft 379 kts 237°
2026-05-06 09:59 41.53735 -72.02116 15467 ft 382 kts 230°
2026-05-06 10:00 41.51878 -72.04707 15868 ft 386 kts 225°
2026-05-06 10:00 41.49950 -72.07227 15977 ft 386 kts 225°
2026-05-06 10:00 41.48047 -72.09689 15983 ft 386 kts 225°
2026-05-06 10:00 41.46111 -72.12187 15985 ft 387 kts 225°
2026-05-06 10:01 41.44170 -72.14690 15984 ft 387 kts 225°
2026-05-06 10:01 41.42247 -72.17168 15984 ft 387 kts 225°
2026-05-06 10:01 41.40295 -72.19679 15983 ft 387 kts 225°
2026-05-06 10:01 41.38366 -72.22158 15979 ft 387 kts 225°
2026-05-06 10:02 41.36435 -72.24632 15977 ft 387 kts 225°
2026-05-06 10:02 41.34485 -72.27130 15973 ft 387 kts 225°
2026-05-06 10:02 41.32560 -72.29595 15972 ft 387 kts 225°
2026-05-06 10:02 41.30638 -72.32056 15981 ft 387 kts 225°
2026-05-06 10:03 41.28677 -72.34563 15990 ft 387 kts 225°
2026-05-06 10:03 41.26719 -72.37064 15979 ft 387 kts 225°
2026-05-06 10:03 41.24697 -72.39645 15983 ft 387 kts 225°
2026-05-06 10:03 41.22754 -72.42122 15974 ft 387 kts 225°
2026-05-06 10:04 41.20800 -72.44611 15977 ft 387 kts 225°
2026-05-06 10:04 41.18873 -72.47066 15970 ft 387 kts 225°
2026-05-06 10:04 41.16909 -72.49564 15976 ft 389 kts 225°
2026-05-06 10:04 41.14967 -72.52031 15980 ft 388 kts 225°
2026-05-06 10:05 41.13033 -72.54488 15974 ft 389 kts 225°
2026-05-06 10:05 41.11056 -72.56995 15975 ft 388 kts 225°
2026-05-06 10:05 41.09127 -72.59439 15970 ft 389 kts 225°
2026-05-06 10:05 41.07168 -72.61919 15968 ft 389 kts 225°
2026-05-06 10:06 41.05197 -72.64414 15969 ft 389 kts 225°
2026-05-06 10:06 41.03241 -72.66885 15974 ft 389 kts 224°
2026-05-06 10:06 41.01276 -72.69370 15759 ft 388 kts 224°
2026-05-06 10:06 40.99340 -72.71814 15512 ft 385 kts 224°
2026-05-06 10:07 40.97390 -72.74272 15267 ft 384 kts 224°
2026-05-06 10:07 40.95477 -72.76698 14900 ft 381 kts 225°
2026-05-06 10:07 40.93792 -72.79357 14380 ft 378 kts 234°
2026-05-06 10:07 40.92440 -72.82327 13756 ft 375 kts 241°
2026-05-06 10:08 40.91435 -72.85487 13091 ft 373 kts 247°
2026-05-06 10:08 40.90562 -72.88654 12636 ft 363 kts 247°
2026-05-06 10:08 40.89737 -72.91709 12229 ft 352 kts 248°
2026-05-06 10:08 40.88926 -72.94716 11873 ft 342 kts 247°
2026-05-06 10:09 40.88135 -72.97632 11479 ft 333 kts 247°
2026-05-06 10:09 40.87362 -73.00478 11142 ft 324 kts 247°
2026-05-06 10:09 40.86615 -73.03220 10918 ft 312 kts 247°
2026-05-06 10:09 40.85889 -73.05878 10632 ft 304 kts 247°
2026-05-06 10:10 40.85191 -73.08428 10413 ft 294 kts 247°
2026-05-06 10:10 40.84514 -73.10911 10258 ft 283 kts 246°
2026-05-06 10:10 40.83857 -73.13315 10043 ft 275 kts 246°
2026-05-06 10:10 40.83213 -73.15661 9778 ft 269 kts 246°
2026-05-06 10:11 40.82585 -73.17946 9412 ft 265 kts 246°
2026-05-06 10:11 40.81960 -73.20213 9061 ft 262 kts 246°
2026-05-06 10:11 40.81342 -73.22456 8690 ft 262 kts 247°
2026-05-06 10:11 40.80719 -73.24715 8324 ft 261 kts 247°
2026-05-06 10:12 40.80106 -73.26937 8038 ft 257 kts 247°
2026-05-06 10:12 40.79535 -73.29177 7617 ft 259 kts 252°
2026-05-06 10:12 40.79243 -73.31522 7281 ft 261 kts 262°
2026-05-06 10:12 40.79225 -73.33934 6920 ft 261 kts 266°
2026-05-06 10:13 40.79267 -73.36319 6652 ft 257 kts 267°
2026-05-06 10:13 40.79311 -73.38638 6389 ft 253 kts 267°
2026-05-06 10:13 40.79356 -73.40942 6125 ft 249 kts 267°
2026-05-06 10:13 40.79396 -73.43218 5834 ft 247 kts 267°
2026-05-06 10:14 40.79435 -73.45455 5513 ft 245 kts 267°
2026-05-06 10:14 40.79473 -73.47718 5201 ft 243 kts 266°
2026-05-06 10:14 40.79510 -73.49916 4895 ft 242 kts 266°
2026-05-06 10:14 40.79545 -73.52115 4627 ft 237 kts 266°
2026-05-06 10:15 40.79581 -73.54265 4219 ft 229 kts 266°
2026-05-06 10:15 40.79614 -73.56326 3797 ft 220 kts 266°
2026-05-06 10:15 40.79647 -73.58302 3372 ft 212 kts 265°
2026-05-06 10:15 40.79678 -73.60184 3175 ft 197 kts 265°
2026-05-06 10:16 40.79671 -73.61949 3095 ft 192 kts 254°
2026-05-06 10:16 40.79091 -73.63486 3039 ft 186 kts 229°
2026-05-06 10:16 40.78138 -73.64642 3039 ft 184 kts 219°
2026-05-06 10:16 40.77091 -73.65604 2863 ft 184 kts 215°
2026-05-06 10:17 40.75994 -73.66516 2615 ft 185 kts 213°
2026-05-06 10:17 40.74889 -73.67395 2384 ft 186 kts 212°
2026-05-06 10:17 40.73776 -73.68264 2152 ft 187 kts 212°
2026-05-06 10:17 40.72670 -73.69134 1898 ft 182 kts 211°
2026-05-06 10:18 40.71595 -73.69973 1593 ft 173 kts 211°
2026-05-06 10:18 40.70615 -73.70699 1629 ft 147 kts 212°
2026-05-06 10:18 40.69791 -73.71345 1456 ft 132 kts 212°
2026-05-06 10:18 40.69040 -73.71967 1186 ft 124 kts 210°
2026-05-06 10:19 40.68316 -73.72523 911 ft 118 kts 211°
2026-05-06 10:19 40.67610 -73.73075 724 ft 117 kts 210°
2026-05-06 10:19 40.66918 -73.73629 581 ft 117 kts 210°
2026-05-06 10:19 40.66215 -73.74172 432 ft 116 kts 209°
2026-05-06 10:20 40.65517 -73.74715 267 ft 115 kts 209°
2026-05-06 10:20 40.64825 -73.75258 124 ft 116 kts 209°
2026-05-06 10:20 40.64140 -73.75790 22 ft 107 kts 210°
2026-05-06 10:20 40.63624 -73.76190 22 ft 68 kts 211°
2026-05-06 10:21 40.63308 -73.76464 22 ft 34 kts 235°
2026-05-06 10:21 40.63238 -73.76675 22 ft 23 kts 273°
2026-05-06 10:21 40.63305 -73.76863 22 ft 22 kts 300°
2026-05-06 10:21 40.63385 -73.77041 22 ft 22 kts 301°
2026-05-06 10:22 40.63465 -73.77219 22 ft 20 kts 299°
2026-05-06 10:22 40.63531 -73.77363 22 ft 16 kts 301°
2026-05-06 10:22 40.63599 -73.77513 22 ft 25 kts 301°
2026-05-06 10:22 40.63693 -73.77666 22 ft 11 kts 353°
2026-05-06 10:23 40.63773 -73.77617 22 ft 14 kts 30°
2026-05-06 10:23 40.63902 -73.77516 22 ft 25 kts 32°
2026-05-06 10:23 40.64052 -73.77399 22 ft 25 kts 31°
2026-05-06 10:23 40.64201 -73.77283 22 ft 24 kts 31°
2026-05-06 10:24 40.64350 -73.77166 22 ft 22 kts 29°
2026-05-06 10:24 40.64434 -73.77135 22 ft 10 kts 304°
2026-05-06 10:24 40.64470 -73.77223 22 ft 8 kts 303°
2026-05-06 10:24 40.64488 -73.77238 22 ft 0 kts 360°
2026-05-06 10:25 40.64521 -73.77237 22 ft 2 kts
2026-05-06 10:25 40.64522 -73.77237 22 ft 0 kts
2026-05-06 10:55 40.64508 -73.77237 22 ft 2 kts
2026-05-06 10:55 40.64494 -73.77238 22 ft 2 kts
2026-05-06 10:55 40.64480 -73.77238 21 ft 1 kts 27°
2026-05-06 10:55 40.64472 -73.77251 21 ft 1 kts 82°
2026-05-06 10:56 40.64472 -73.77258 22 ft 1 kts 95°
2026-05-06 10:56 40.64472 -73.77263 22 ft 0 kts 91°